FREGAT DEB, 45641

Orbit data source: Space-Track

FREGAT DEB, 45641 is space debris in LEO originally from a launch on Mon, 18 Jul 2011 UTC launched from the Tyuratam Missile And Space Complex (TTMTR). Debris objects in space refer to the collection of defunct objects orbiting the Earth. Examples of debris include non-operational satellites, rocket bodies, and fragments generated from explosions, collisions, or faulty payload assembly.

Loading next visibility...
Identifier
45641, 2011-037AH
Orbit
LEO
Country
Flag of CISCIS
Related business
Manufacturer
Lavochkin
Mission
Spacecraft
Bus & Motor
Unknown
Mass
Unknown
Launch date (UTC)
2011-07-18 (14 years ago)
Launch vehicle
Unknown
Launch site
Tyuratam Missile And Space Complex (TTMTR)
Object type
Payload
Rocket body
Debris
Shape & HBR
Unknown
Radar Cross Section
Medium (>0.1 m² and <1 m²)

Expand to show TLE details & history
Last TLE update: 6 hours ago

TLE from 6 hours ago
0 FREGAT DEB
1 45641U 11037AH  25245.90878786  .00246307  00000-0  72072-2 0  9995
2 45641  51.5994 311.5905 0511745  17.2282 344.5343 14.58931624244564
Epoch: 2025-09-02T21:48Z
TLE epoch observation values (Epoch: 2025-09-02T21:48:39.271Z)
Latitude
-0°
Longitude
2.1336°
Altitude
349.825 km
Speed
7.887 km/s
True Right ascension
20h 46m 21s
True Declination
0° 00' 00"
Sunlit
Object was in full shadow at epoch
Visualization orbit readout
Latitude
Unknown
Longitude
Unknown
Altitude
Unknown
Speed
Unknown
Apparent Right ascension
Unknown
Apparent Declination
Unknown
Sunlit
N/A
Visualization observer readout
Local Sidereal Time
19:27:01
Azimuth
Unknown
Elevation
Unknown
Doppler factor
Unknown
Orbital elements
Apogee altitude
1,059.195 km
Perigee altitude
335.049 km
Semi-major axis
7,075.259 km
Eccentricity
0.05117
Inclination
51.5994°
RAAN
311.5905°
Arg. of periapsis
17.2282°
True anomaly
342.86834°
Mean anomaly
344.5343°
Eccentric anomaly
343.71195°
Mean motion
3.64695 °/min
Orbital period
98.71 mins
BSTAR
0.0072072
Loading maneuver chart data...
Computing Atmospheric mass density...
Loading historical data...
Loading historical data...
Loading historical data...
Loading historical data...
Loading historical data...
Loading historical data...
Loading historical data...

Documentation

Showing up to 5 results
|